GFSNE_850_thetae_036.txt.gz
Theta_e
307 307 304 302 299 296 294 294 293 291 290 291 290 289 288 288 288 287 287 286 286 286 287 288 289 290 291 291 291 292 292 293 293 294 294 294 295 295
305 304 301 298 296 294 294 293 292 290 289 289 289 288 288 287 287 286 286 285 285 285 286 288 288 289 289 290 291 291 291 292 292 293 293 294 294 295
303 301 299 297 295 293 293 292 290 289 288 288 288 287 287 286 286 286 285 285 285 285 285 287 287 288 289 289 289 290 290 291 291 291 292 293 293 294
299 297 295 294 294 293 292 290 289 288 288 287 287 287 286 286 285 285 285 285 284 285 285 286 287 287 287 288 288 289 290 290 290 290 290 291 291 292
295 294 296 294 293 291 290 289 288 287 287 287 287 286 286 285 285 284 284 284 284 285 285 285 285 286 286 287 288 288 288 287 287 288 288 289 290 290
299 301 298 292 290 289 288 288 287 287 287 287 286 286 286 285 284 284 283 283 284 285 285 285 285 285 285 285 285 285 285 286 286 287 288 289 289 290
299 293 290 288 288 287 287 287 287 287 286 286 286 286 285 285 284 283 283 283 284 285 285 285 285 285 286 286 286 286 286 286 286 287 288 288 288 289
292 289 288 287 287 286 286 287 287 287 287 286 286 286 285 284 284 283 283 284 284 285 285 284 285 285 286 286 286 286 285 285 286 287 287 287 288 288
289 288 287 286 285 285 285 285 285 286 286 286 285 285 284 284 283 284 285 284 284 284 284 284 285 286 286 285 285 286 285 285 285 286 287 287 288 288
287 286 285 284 284 284 284 285 285 285 285 285 284 284 283 284 285 285 284 283 283 284 285 282 285 285 285 285 286 286 286 286 285 285 286 287 287 287
286 285 284 283 283 284 285 285 286 285 285 284 283 284 284 284 284 283 283 283 283 284 285 282 284 283 284 285 286 286 286 285 285 285 285 285 286 287
285 284 283 282 282 285 285 285 284 284 283 283 283 283 283 283 284 284 283 283 283 281 284 283 283 282 282 283 284 285 286 286 286 286 286 285 285 286
284 283 282 282 284 285 284 284 283 283 283 283 283 283 284 284 284 285 284 283 283 283 285 282 282 282 281 282 284 285 285 286 286 286 286 286 286 284
281 281 282 284 284 283 282 281 282 282 282 282 283 284 284 285 285 285 285 284 284 284 285 284 283 283 283 281 282 285 285 286 286 286 286 286 286 286
282 283 283 283 282 281 280 280 281 282 283 283 283 284 284 285 285 285 285 285 285 286 286 285 284 284 283 282 283 285 285 286 286 286 286 286 286 286
283 283 283 282 280 280 280 281 282 283 283 283 284 284 285 285 285 284 284 284 284 286 286 285 285 284 284 284 283 284 286 283 286 286 286 286 287 287
283 282 281 280 280 280 281 283 283 283 284 284 284 285 285 284 284 284 284 284 283 284 285 286 285 285 285 285 284 286 286 286 286 286 286 286 287 287
281 280 280 280 280 281 282 283 284 284 284 284 285 284 284 284 283 284 283 284 284 285 285 285 285 285 285 285 284 285 285 285 286 286 286 286 286 287
280 280 280 280 280 282 283 283 284 284 284 285 285 284 284 283 283 284 284 284 284 284 285 285 285 284 283 283 285 285 286 286 287 287 287 287 286 288
280 280 280 281 282 283 283 284 284 285 285 285 284 284 284 284 284 284 284 284 284 284 284 285 285 285 284 284 285 287 288 286 286 286 286 287 287 288
280 280 281 282 283 283 284 284 284 285 285 285 285 285 285 285 285 285 285 285 285 285 284 285 286 286 286 286 285 286 288 288 287 287 287 287 288 288
280 281 282 283 284 284 284 285 285 285 285 285 285 286 286 286 286 285 285 285 285 284 284 284 286 286 286 285 285 286 287 288 289 289 289 289 289 289
281 283 283 284 284 285 285 285 285 285 286 286 286 286 286 286 285 285 285 285 284 284 283 285 286 286 286 286 285 286 287 288 288 289 289 289 289 289

GFSNE_850_thetae_039.txt.gz
Theta_e
307 306 309 307 303 300 301 297 295 294 294 295 293 293 290 290 289 288 288 287 287 286 286 286 287 289 290 290 291 292 292 293 293 294 294 295 295 296
306 310 302 304 300 298 296 295 294 293 291 291 291 290 289 289 288 287 287 286 286 286 285 285 287 288 289 289 290 291 291 291 292 293 293 294 294 295
305 306 299 300 298 296 295 294 293 291 290 289 289 288 288 288 287 287 286 286 285 285 285 285 286 288 288 289 289 290 290 291 291 292 292 293 293 294
308 304 297 298 296 295 294 293 292 290 288 288 288 288 287 286 286 286 286 285 285 284 285 286 286 287 287 288 288 289 289 290 290 290 291 291 291 292
298 293 294 296 298 297 295 291 289 288 288 287 287 287 286 286 286 285 285 284 284 284 286 286 286 286 286 287 288 288 288 288 288 288 289 289 289 290
295 296 298 299 299 292 289 288 288 287 287 287 287 286 286 286 285 285 284 284 283 285 286 286 285 285 285 286 286 286 286 286 286 287 287 288 288 289
300 299 300 293 289 288 287 287 287 287 287 286 286 286 286 286 285 284 284 283 284 285 286 285 284 285 286 287 287 287 287 286 286 286 287 288 288 289
299 292 289 287 287 287 286 286 286 287 287 287 286 286 286 285 284 284 283 284 284 284 284 284 284 285 286 286 287 287 286 286 286 286 287 288 288 288
288 288 287 287 286 285 285 284 284 285 286 286 286 285 285 284 284 284 285 285 284 284 284 284 285 286 286 286 286 286 286 286 285 286 286 287 287 288
287 287 286 285 285 284 283 285 285 285 285 285 285 284 284 284 284 285 284 284 283 284 284 283 285 285 285 286 286 286 286 286 286 286 286 287 287 287
286 286 285 284 283 282 284 285 285 285 284 284 283 283 283 283 283 283 283 283 283 284 285 283 285 284 284 285 286 286 286 286 286 286 285 285 286 286
286 285 283 282 282 284 285 285 284 283 283 283 283 283 283 283 284 283 283 283 283 281 284 283 283 282 282 283 284 285 286 286 286 286 286 286 285 285
283 282 282 282 284 285 284 283 282 282 283 282 282 283 284 284 285 285 284 284 283 283 285 281 281 281 280 281 283 285 285 286 286 286 286 286 286 285
282 282 283 284 283 283 282 281 281 282 281 282 283 284 284 285 285 285 285 284 284 284 285 284 282 283 282 281 282 285 286 286 286 287 287 287 286 286
283 283 283 283 282 281 281 281 281 282 283 283 284 284 284 285 285 285 285 284 284 285 285 285 284 284 283 282 282 284 285 286 286 287 286 286 286 286
283 283 282 281 280 280 280 281 282 283 283 283 284 284 285 285 285 284 284 284 284 285 285 285 285 284 283 284 283 284 286 284 286 286 286 286 286 287
282 281 281 281 280 281 281 283 283 283 284 284 284 285 285 284 284 284 284 284 284 284 285 286 285 285 285 284 284 286 286 285 286 286 286 286 287 287
280 280 280 280 280 281 283 283 284 284 284 285 285 285 284 284 285 285 284 284 284 285 285 285 285 285 285 285 284 285 285 285 286 286 285 285 286 286
280 280 280 280 281 283 283 284 284 285 285 285 285 285 285 285 285 285 285 285 285 285 285 285 284 283 282 282 285 284 284 285 285 286 286 286 286 287
280 280 280 281 283 283 284 284 285 285 285 285 285 285 286 285 285 285 285 285 285 285 285 285 284 284 283 283 284 287 287 285 285 286 286 287 287 288
280 280 282 283 283 284 284 285 285 285 285 285 286 286 286 285 285 285 285 285 285 285 285 285 285 285 285 285 284 286 289 288 288 287 287 287 287 288
280 282 283 283 284 284 285 285 285 285 285 285 286 286 286 286 286 286 285 285 285 285 285 285 285 285 285 285 285 286 288 289 289 289 289 288 288 288
282 283 283 284 284 285 285 285 285 285 285 285 286 286 286 286 286 286 286 285 285 285 285 285 285 285 285 285 285 286 288 288 289 289 290 289 289 289

GFSNE_850_thetae_042.txt.gz
Theta_e
314 309 308 308 304 306 306 302 303 297 297 298 296 295 293 291 290 290 289 288 288 287 287 287 287 287 289 290 290 291 292 292 293 294 295 295 295 296
309 308 304 304 302 303 300 299 296 295 293 296 296 293 291 290 290 289 288 287 287 286 286 286 285 286 288 289 290 291 291 292 292 293 293 294 294 295
305 303 301 302 304 302 297 299 295 293 292 294 294 291 289 289 288 288 287 286 286 286 286 285 285 287 288 289 290 290 290 291 291 292 292 293 294 294
303 303 304 306 304 301 296 298 300 297 294 290 289 289 288 288 287 286 286 286 285 285 285 285 285 286 287 287 288 289 289 289 290 290 291 291 292 292
303 304 304 302 301 302 300 298 298 291 289 288 288 287 287 286 286 286 285 285 285 284 284 285 285 286 286 286 287 288 288 288 288 289 289 289 290 290
303 301 302 301 300 298 299 296 289 288 288 288 287 287 286 286 286 285 285 284 284 284 285 285 285 285 286 286 286 286 286 286 287 287 288 288 289 289
300 301 299 298 300 295 290 288 287 288 287 287 287 286 286 285 285 285 284 283 284 284 286 286 285 285 286 286 286 287 287 287 286 286 288 288 288 289
299 299 299 291 289 287 286 286 285 285 286 286 285 286 286 285 285 284 283 284 284 284 284 285 285 285 286 286 286 287 286 286 286 286 287 288 288 288
299 293 288 286 287 286 285 285 284 284 285 286 285 285 285 284 283 284 284 284 284 283 283 284 284 285 286 286 286 286 286 286 286 286 286 287 288 288
286 287 287 286 286 285 284 283 284 284 285 285 284 284 283 284 284 283 283 283 283 284 284 283 285 285 285 285 286 286 286 286 286 286 286 287 287 287
287 286 286 285 283 282 283 284 285 285 284 283 282 282 282 282 283 283 283 283 284 284 285 283 285 284 284 285 285 285 286 286 285 286 286 286 286 286
285 284 283 282 282 284 285 285 284 283 282 282 282 282 283 284 284 284 284 283 283 282 283 282 283 282 281 283 284 285 285 286 286 286 286 286 286 285
283 282 282 283 284 285 284 283 282 282 282 281 282 284 284 285 285 285 285 284 283 283 285 281 281 282 280 282 284 285 285 286 286 287 287 287 286 286
283 283 283 283 283 282 281 280 281 281 281 283 284 284 285 285 285 285 285 284 284 284 284 283 282 283 282 281 283 285 286 286 286 287 287 287 286 286
283 283 283 282 281 281 281 281 281 282 283 283 284 285 285 285 285 285 285 285 285 285 285 285 284 284 283 283 283 284 285 287 287 287 286 286 286 286
282 282 281 280 280 280 281 281 283 283 283 284 284 285 285 285 285 285 285 286 286 287 286 286 285 284 284 284 284 285 287 284 286 286 285 286 286 287
281 281 281 281 281 281 282 283 284 284 284 285 285 285 285 285 285 286 286 286 285 286 287 286 285 285 284 284 284 286 285 285 286 286 285 286 287 287
281 281 281 281 281 283 284 284 284 284 285 285 285 285 285 285 286 286 285 285 286 286 286 286 285 285 285 285 283 284 285 284 286 286 285 284 285 287
280 280 280 281 282 283 284 284 285 285 285 285 285 285 285 285 285 286 286 286 285 285 285 285 285 285 283 282 284 284 284 285 286 286 286 286 286 288
280 280 281 282 283 284 284 284 285 285 285 285 285 285 285 284 285 286 286 286 285 285 285 285 285 285 284 284 284 287 286 285 286 286 286 287 287 288
280 281 282 283 283 284 284 285 285 285 285 285 285 285 286 285 285 286 286 286 285 285 285 285 285 285 285 285 284 285 288 288 287 286 287 287 288 288
280 282 283 283 284 284 284 285 285 285 285 285 285 286 286 286 285 286 286 286 285 285 285 285 285 285 285 285 285 285 287 289 289 289 289 288 287 287
281 282 283 283 284 284 284 285 285 285 285 285 285 286 286 286 286 286 286 286 286 285 285 285 285 285 285 285 285 286 288 289 289 289 290 290 289 289

GFSNE_850_thetae_045.txt.gz
Theta_e
324 321 318 312 308 307 307 309 306 302 303 300 298 297 295 295 294 292 291 290 289 289 288 288 288 287 287 288 289 291 292 292 293 294 294 295 296 296
322 319 316 311 307 306 307 309 305 300 297 296 295 294 293 297 295 291 290 289 288 287 287 287 287 286 287 288 289 290 291 292 293 293 294 295 295 295
319 315 310 305 305 305 304 299 301 301 300 301 302 301 299 292 290 289 288 287 286 286 286 286 286 285 287 288 289 289 290 291 291 292 293 293 294 295
310 308 303 303 303 302 301 302 302 302 300 300 299 298 290 289 289 288 287 286 286 286 286 286 285 285 285 286 288 288 289 289 290 290 291 291 292 293
303 301 301 302 303 303 301 301 300 298 297 297 294 289 288 288 287 286 285 285 285 286 285 285 285 286 286 286 287 288 288 288 288 289 289 290 290 291
301 301 302 302 302 300 300 298 297 297 293 288 288 288 287 286 286 285 285 285 284 284 284 285 286 286 286 286 286 286 286 286 286 287 288 289 289 290
302 302 301 300 300 299 298 297 291 288 287 287 287 286 286 285 285 285 284 284 283 284 285 286 286 286 287 286 286 287 287 287 287 287 287 288 288 289
301 299 299 298 299 295 289 286 286 286 285 286 285 285 285 285 284 284 283 284 284 284 284 284 284 286 286 286 286 286 287 286 286 286 287 287 288 288
298 299 298 291 287 286 285 285 284 284 284 285 285 285 285 284 283 283 283 283 283 284 284 284 286 286 286 286 286 286 286 286 286 286 286 287 288 288
295 288 287 286 286 285 284 283 283 284 284 285 285 284 283 283 283 283 283 283 283 285 284 283 286 285 285 286 286 286 286 286 286 286 286 287 287 287
287 287 286 285 284 283 283 284 285 285 284 283 282 282 282 282 283 283 284 283 284 285 285 283 285 283 284 286 286 286 286 286 285 285 285 286 285 286
285 284 283 283 283 284 285 285 284 283 282 282 282 282 283 284 284 284 284 284 284 283 283 283 283 282 282 284 285 285 286 286 286 286 286 286 286 285
283 283 283 283 284 285 284 283 282 282 282 282 283 284 284 285 285 285 285 284 284 284 285 283 284 284 281 283 285 286 286 287 287 287 287 287 287 286
283 283 283 283 282 282 281 281 281 281 281 284 284 285 285 285 285 285 285 285 285 285 286 285 284 284 283 283 284 286 286 287 286 287 287 287 286 286
282 282 282 281 281 281 281 281 281 283 283 284 284 285 285 285 285 286 286 286 287 287 286 286 285 285 284 284 284 285 285 287 287 286 286 286 286 286
282 281 281 281 281 281 281 282 283 283 284 284 285 285 285 286 286 286 286 286 287 288 287 286 285 285 285 285 284 285 286 283 286 286 285 287 287 287
281 280 280 280 281 281 283 283 284 284 285 285 285 285 285 286 286 286 286 286 286 286 286 286 285 285 285 285 285 285 285 286 286 286 285 286 288 288
280 280 280 280 282 283 284 284 284 285 285 285 285 285 285 285 286 286 286 286 286 286 285 285 285 285 285 285 285 285 285 285 286 286 285 284 286 287
280 280 281 282 283 284 284 284 285 285 285 285 285 285 285 285 285 285 286 286 286 286 285 285 285 284 283 283 285 284 285 285 285 286 287 287 287 289
280 280 281 283 283 284 284 285 285 285 285 285 285 285 285 285 285 285 285 285 286 286 285 286 285 285 284 283 283 286 285 285 286 286 288 288 288 289
280 281 282 283 283 284 284 285 285 285 285 285 285 285 285 285 285 284 285 286 285 285 285 285 285 285 285 284 284 285 286 286 286 286 288 287 288 289
280 281 282 283 283 284 284 285 285 285 285 285 285 285 285 285 284 284 285 285 286 286 286 285 285 284 284 284 285 285 286 287 288 288 288 288 287 287
280 281 283 283 283 284 284 284 285 285 285 285 285 285 285 285 285 286 284 286 286 286 286 285 285 284 285 285 284 285 286 287 288 288 289 288 289 288

GFSNE_850_thetae_051.txt.gz
Theta_e
324 322 321 321 323 321 319 322 318 312 308 303 300 300 300 299 300 305 300 296 297 297 299 304 304 300 294 292 290 290 289 290 292 293 294 295 296 297
322 321 319 320 321 320 317 313 310 308 306 306 306 303 303 305 302 300 299 299 300 299 302 303 300 292 289 289 289 289 288 290 292 293 294 295 295 296
320 320 320 320 318 316 313 309 305 305 304 303 304 305 303 302 301 301 301 300 300 300 299 292 290 289 287 288 287 287 287 289 291 292 292 293 293 295
317 317 317 317 315 311 307 306 307 305 303 304 303 303 300 300 299 299 299 299 296 291 289 288 287 287 287 287 286 287 287 289 290 290 291 292 292 293
314 313 312 311 309 307 305 304 304 303 303 302 302 299 298 297 297 297 295 291 288 287 288 287 287 286 287 287 287 288 288 289 289 289 289 290 290 291
310 308 305 303 302 303 303 302 302 301 300 299 297 296 295 294 290 288 288 288 288 287 286 286 286 287 288 288 288 288 288 288 287 287 288 288 289 289
302 302 301 301 302 302 301 301 299 298 296 295 294 290 288 289 289 288 288 287 287 285 286 286 287 288 288 288 288 288 288 288 288 288 288 288 289 290
300 301 301 301 300 299 298 298 297 296 293 288 288 289 288 288 288 287 287 287 284 286 286 287 287 287 288 288 288 288 288 287 287 287 287 288 288 289
299 298 298 298 297 297 296 291 288 286 286 286 286 287 287 287 287 286 285 285 285 285 286 288 287 287 288 288 288 288 288 287 287 287 287 287 288 288
297 297 296 292 289 287 287 286 285 284 285 285 285 285 286 285 285 285 285 284 285 286 286 286 287 287 288 289 289 288 288 288 288 287 287 287 287 287
288 288 287 286 285 284 284 285 285 286 286 285 284 284 283 283 282 282 284 284 285 286 286 286 287 286 288 289 289 289 288 288 287 287 287 287 287 286
286 285 284 284 284 284 284 286 286 285 285 283 283 284 283 283 284 285 285 285 285 285 286 286 286 286 285 288 288 287 288 288 287 287 287 287 287 286
284 284 284 284 283 284 283 284 284 283 282 284 283 283 284 284 285 285 285 285 285 285 287 285 287 287 285 285 287 287 287 287 287 287 287 287 287 286
284 283 284 283 283 282 282 282 282 282 282 282 284 285 285 285 285 286 286 286 286 286 287 286 286 286 285 285 285 287 287 287 287 287 287 287 286 286
283 283 282 282 282 282 282 282 282 282 284 284 285 285 285 286 286 286 286 286 286 287 287 287 286 286 285 285 284 285 286 287 287 287 286 286 286 286
283 282 282 281 281 281 281 282 283 284 284 285 285 285 286 286 286 286 286 286 287 287 287 287 286 285 285 285 283 285 285 282 285 286 286 286 286 287
281 281 281 281 281 281 282 284 284 284 285 285 285 286 286 286 286 286 286 286 286 286 287 286 286 285 284 283 283 285 285 284 285 285 285 285 285 286
281 280 280 281 281 282 284 284 284 285 285 285 286 286 286 286 286 286 285 285 285 286 286 286 285 284 284 284 284 284 285 284 285 284 284 285 286 286
281 280 280 281 281 283 284 284 285 285 285 285 285 286 285 286 285 285 285 285 286 285 285 285 284 284 284 284 285 285 285 284 285 285 286 286 286 287
280 280 280 281 281 283 283 284 284 285 285 285 285 285 285 285 285 285 285 285 285 285 285 285 284 284 284 285 285 285 285 285 285 285 286 286 286 286
280 280 280 280 281 283 283 284 284 284 285 285 285 285 285 285 285 284 285 284 284 284 285 286 286 285 285 285 284 285 285 286 286 286 286 286 286 286
280 280 280 280 281 282 283 283 283 284 284 284 285 285 285 284 284 284 284 284 284 284 285 285 286 285 284 285 286 286 286 286 286 286 286 286 286 286
280 280 280 280 281 281 282 283 283 284 284 284 284 284 284 284 284 284 284 284 284 284 285 285 285 285 285 286 287 286 286 286 286 286 286 286 286 287

GFSNE_850_thetae_054.txt.gz
Theta_e
324 323 322 322 321 320 318 317 318 314 310 308 307 306 306 300 299 302 300 301 300 302 303 297 299 299 303 304 302 297 293 292 290 291 293 295 296 297
321 322 321 321 320 320 319 318 315 313 310 310 310 306 303 302 302 305 300 299 303 301 300 300 300 302 301 298 292 290 289 289 290 293 293 294 295 296
319 321 319 319 318 318 317 316 313 310 306 305 305 305 306 307 305 304 300 301 301 299 300 300 298 296 292 289 288 288 288 289 291 291 292 293 294 294
317 317 317 316 315 314 312 308 308 306 306 305 305 303 304 304 302 300 300 300 300 300 299 294 292 289 288 288 287 287 288 289 290 291 291 292 292 293
315 313 312 311 310 309 307 305 303 303 302 303 303 302 301 300 299 298 298 298 298 294 289 288 288 287 287 287 288 289 289 289 289 289 290 290 290 291
314 312 312 308 305 304 303 302 302 302 301 301 299 299 298 297 297 294 290 289 289 288 287 287 286 286 287 288 288 288 288 288 289 289 289 289 289 290
306 305 306 303 301 301 301 301 301 300 300 299 298 298 295 290 289 289 288 288 288 287 286 286 286 288 288 288 288 288 288 288 289 289 289 290 290 290
301 300 303 300 300 299 298 299 298 297 297 296 291 289 289 288 288 288 288 287 286 285 285 286 287 288 289 288 289 289 288 288 288 288 288 289 289 289
299 298 298 298 297 297 297 295 290 287 287 287 287 287 286 287 287 287 287 286 285 285 286 288 288 289 289 289 289 289 288 288 288 288 288 288 288 288
298 297 298 293 289 287 287 286 285 285 285 285 285 285 285 285 286 285 284 284 284 285 286 287 288 288 289 290 290 289 289 288 288 288 288 287 288 288
288 288 286 286 285 285 284 285 286 286 286 286 285 284 284 283 283 283 283 283 285 287 287 287 288 288 289 290 289 289 288 288 287 287 287 287 287 287
285 285 284 284 284 284 284 285 285 285 285 284 283 283 283 283 284 284 285 285 285 286 287 286 287 286 286 289 289 288 288 288 287 287 287 287 287 287
284 284 284 284 284 283 283 283 283 283 283 282 283 283 284 285 285 285 286 286 286 286 286 285 287 287 285 286 289 288 289 288 288 287 287 287 287 286
284 284 283 283 283 283 282 282 282 282 282 282 283 285 285 285 285 286 286 286 286 286 286 285 285 286 286 286 286 288 288 288 288 287 286 286 286 286
283 283 282 282 282 282 282 281 281 282 282 284 285 285 285 286 286 286 286 286 286 287 287 286 286 286 285 285 284 286 286 287 287 286 286 286 286 286
282 282 282 282 281 281 281 282 282 284 285 285 285 285 286 286 286 286 286 286 286 287 287 286 286 285 283 283 283 284 286 284 286 286 285 285 286 287
282 281 281 281 281 281 282 283 284 284 285 285 285 286 286 286 286 286 286 286 285 286 287 287 286 285 283 283 284 286 286 285 285 285 285 285 285 286
281 281 281 281 281 281 282 283 284 284 285 285 285 285 286 286 286 286 286 285 285 286 286 286 285 283 284 285 285 285 285 285 285 285 285 285 285 286
281 281 280 280 281 281 282 284 284 285 285 285 285 285 285 285 285 285 285 285 285 285 285 284 283 282 283 284 285 285 284 285 285 285 286 286 286 286
281 281 280 280 281 281 282 284 284 284 284 285 285 285 284 284 284 284 284 284 284 283 283 283 283 284 283 283 283 284 286 286 286 286 286 286 286 286
280 280 280 280 280 280 281 282 284 284 284 284 284 284 284 284 284 284 284 283 281 282 283 285 285 284 282 283 283 284 286 286 286 286 286 286 286 286
280 280 280 280 280 280 280 281 282 283 283 283 283 283 284 284 283 283 283 283 283 283 283 284 285 284 282 282 282 284 285 286 286 286 286 286 286 286
280 280 280 280 280 280 280 280 280 281 282 282 282 283 283 283 283 283 283 283 283 283 283 283 284 283 283 283 283 284 285 286 286 286 286 286 286 286

GFSNE_850_thetae_057.txt.gz
Theta_e
321 322 322 322 323 323 321 322 318 315 315 316 312 312 306 305 308 306 307 309 304 303 303 305 302 298 300 298 298 302 303 302 297 293 293 294 296 297
318 319 319 319 320 321 317 318 315 315 314 313 311 308 306 305 307 308 307 305 304 302 302 301 299 299 299 301 301 298 295 292 291 292 293 295 295 296
316 316 316 318 319 319 318 317 314 311 308 309 308 308 309 309 305 305 305 300 302 300 299 298 298 298 298 297 294 290 290 291 290 291 292 293 294 294
314 314 315 316 316 315 315 314 313 310 306 307 307 306 302 306 303 302 300 301 299 299 298 297 296 293 291 290 290 289 289 288 290 291 292 292 293 294
312 312 313 314 315 313 310 309 308 306 305 303 303 303 303 302 301 300 301 298 298 297 295 292 289 289 288 287 287 288 289 290 290 290 290 290 291 291
311 311 309 308 309 307 304 303 302 301 301 301 301 301 301 300 299 297 297 295 292 289 288 288 287 287 286 286 287 288 288 288 288 289 289 290 290 290
306 306 306 304 302 301 300 300 300 299 299 299 299 298 297 296 295 291 290 289 288 288 287 286 285 286 287 288 288 288 288 288 289 289 289 289 290 291
301 301 301 300 299 299 299 299 299 297 297 296 294 291 289 289 289 288 288 288 287 286 285 285 286 288 288 288 288 289 289 289 288 289 289 289 289 290
299 299 299 298 298 298 297 295 292 289 288 287 287 287 287 287 287 287 287 287 286 284 284 287 288 288 288 289 289 289 289 289 288 288 288 288 288 289
296 296 294 292 289 288 287 287 286 286 285 285 285 285 285 285 285 285 285 284 283 284 285 287 288 289 289 289 290 289 288 288 288 288 288 288 288 288
287 286 286 285 285 285 285 285 285 285 285 285 285 284 284 283 283 283 283 282 284 286 286 286 287 288 289 290 289 289 288 288 288 288 287 287 287 286
286 285 285 285 284 284 284 284 284 284 284 284 284 283 283 283 283 284 285 285 285 285 286 286 286 287 289 290 289 289 288 288 288 288 288 287 287 287
284 284 284 284 283 283 283 282 282 283 282 282 282 283 283 284 285 285 285 285 285 285 285 285 286 286 285 287 290 289 288 288 288 288 287 286 286 286
284 284 283 283 282 282 282 282 282 281 281 282 282 283 284 284 285 285 285 286 286 286 286 285 285 286 285 285 286 288 288 288 288 288 287 286 286 286
283 283 282 282 282 282 282 281 281 281 282 283 284 284 285 285 286 286 286 287 287 286 286 286 286 286 285 285 285 287 287 289 288 287 287 286 286 286
282 282 282 282 281 281 281 281 282 283 284 284 285 285 285 286 286 286 287 287 287 287 287 286 286 285 284 284 283 287 287 285 288 287 286 286 286 286
282 282 281 281 281 281 281 282 283 284 284 284 285 285 285 286 286 286 286 286 286 287 287 287 286 285 283 283 283 286 287 287 287 286 286 286 286 286
282 281 281 281 280 281 281 282 283 284 284 285 285 285 285 285 286 286 285 285 285 286 286 286 286 285 284 284 285 286 286 286 286 286 285 285 286 286
281 281 281 280 280 280 281 281 283 284 284 285 285 285 285 285 285 285 285 285 285 285 285 285 284 282 281 282 285 285 284 285 285 285 286 286 286 286
280 280 280 280 280 280 280 281 281 283 284 284 284 284 284 284 284 285 284 284 284 284 284 284 284 283 281 282 281 285 285 284 285 285 286 286 286 286
280 280 280 280 280 280 280 280 280 281 282 283 283 283 283 283 283 284 284 283 282 282 283 284 285 283 282 281 282 285 286 286 285 285 285 285 285 285
280 280 280 280 280 280 280 280 280 280 281 281 282 282 282 282 282 283 283 283 283 283 283 284 284 284 283 283 283 283 284 286 286 285 285 285 285 285
280 280 280 280 280 280 280 280 280 280 281 281 281 281 282 282 283 283 283 283 283 283 283 284 284 284 283 282 281 282 283 284 284 284 285 285 285 285

GFSNE_850_thetae_060.txt.gz
Theta_e
318 318 319 319 320 318 319 319 317 315 314 312 307 310 307 308 306 307 307 306 303 305 304 305 302 300 300 301 300 300 300 299 300 301 300 297 297 297
312 315 315 317 318 319 317 317 316 314 312 311 311 311 308 307 304 304 303 300 303 304 301 301 299 299 299 299 299 298 298 297 295 295 295 295 296 296
311 312 313 314 314 314 316 315 315 314 312 313 311 310 309 305 301 302 302 301 302 301 299 298 297 297 297 297 297 297 297 294 293 294 293 294 294 295
311 311 312 313 314 313 313 312 312 311 309 309 307 306 307 306 304 305 302 301 299 299 298 299 298 295 296 296 295 293 292 292 291 291 292 292 293 295
310 310 311 311 310 309 308 308 307 306 306 305 304 303 303 303 303 302 300 300 299 299 299 298 296 296 294 292 291 289 289 290 291 291 291 291 291 292
307 308 308 309 308 308 306 304 304 303 302 303 303 302 301 301 301 299 298 297 296 296 296 292 290 289 288 287 287 286 287 288 288 288 289 290 290 290
306 306 306 305 304 303 303 302 301 300 300 300 300 300 299 299 298 297 296 295 291 289 288 288 287 286 286 286 286 287 288 288 288 288 289 290 291 291
303 303 302 301 301 301 300 299 298 297 297 297 297 296 295 293 292 290 289 288 288 287 286 286 285 285 286 287 288 288 288 288 289 289 289 289 290 291
300 300 299 299 298 298 297 295 290 287 287 287 287 288 288 288 287 287 287 287 287 286 284 285 285 287 288 288 288 288 289 289 289 288 288 288 288 289
290 289 289 288 287 287 286 286 286 286 285 285 285 285 285 285 285 285 285 285 284 283 283 285 287 288 288 288 289 289 289 288 288 288 288 288 288 288
286 286 286 285 285 285 285 285 285 285 285 285 285 285 284 284 284 284 283 283 282 284 285 286 287 288 289 289 289 289 289 288 288 287 288 288 288 288
285 285 284 284 284 284 284 284 284 284 284 284 284 283 283 283 283 283 283 284 285 286 287 286 287 287 288 289 289 289 289 288 287 288 288 288 288 288
284 284 284 284 283 283 283 282 282 282 283 282 282 282 282 283 284 284 285 285 285 285 285 285 286 286 286 288 289 289 289 288 288 288 288 288 287 286
283 283 283 282 282 282 282 282 282 282 282 282 282 282 284 284 285 285 285 285 285 285 285 285 284 284 284 285 288 289 289 289 288 288 288 287 287 286
283 283 282 282 282 282 282 281 281 281 282 282 284 284 284 285 285 285 286 286 286 286 286 285 285 284 282 283 284 288 288 289 289 288 288 287 287 286
282 282 282 282 281 281 281 281 282 282 283 284 284 284 285 285 285 286 286 286 286 287 286 286 285 284 283 283 282 286 287 286 289 288 287 287 287 287
282 282 282 281 281 281 281 281 281 282 283 284 284 285 285 285 286 286 286 286 286 287 287 286 285 285 285 283 282 285 287 287 287 288 287 287 287 287
282 282 281 281 281 281 281 281 281 282 283 284 284 285 285 285 285 286 285 286 286 286 286 286 285 285 285 287 286 286 286 286 286 286 286 285 287 287
282 281 281 280 280 280 280 280 281 281 282 284 284 284 284 284 284 284 284 284 285 285 285 285 285 284 283 283 285 285 284 285 284 285 285 285 285 286
281 281 281 280 280 280 280 280 280 281 281 282 283 283 283 283 283 284 284 283 284 284 285 285 285 284 282 283 282 286 285 284 284 285 285 285 285 286
281 281 280 280 280 280 280 280 280 280 280 281 281 281 281 281 282 282 283 283 283 283 283 284 284 283 282 282 282 285 286 285 284 284 285 284 284 284
281 281 281 280 280 280 280 280 281 280 280 281 281 281 281 281 281 282 282 283 283 283 283 284 284 284 284 283 284 284 285 286 286 285 284 284 284 283
282 282 281 281 280 280 280 280 281 281 281 281 281 281 282 282 283 283 283 283 283 283 283 283 284 284 284 283 283 283 284 285 285 285 286 285 285 285

GFSNE_850_thetae_063.txt.gz
Theta_e
322 321 319 315 315 316 315 316 318 316 316 314 314 313 312 311 311 311 309 308 304 305 306 305 305 303 303 303 302 301 300 300 301 301 300 300 299 299
316 315 313 310 311 313 314 316 314 314 313 314 313 313 312 311 310 305 308 305 304 303 302 301 301 301 301 301 300 300 299 300 300 299 298 297 298 298
311 310 309 310 311 312 312 312 313 313 313 312 311 311 310 309 307 302 303 301 302 300 300 300 300 299 299 299 298 298 298 298 298 297 296 296 296 296
308 309 310 310 310 310 310 310 310 310 309 309 308 308 307 305 304 303 300 300 298 299 299 299 298 298 297 297 297 297 297 296 295 295 293 292 293 294
306 307 308 309 309 308 308 308 307 307 307 306 305 304 304 302 301 300 300 299 299 298 298 298 298 297 296 295 294 294 294 294 291 290 291 291 291 292
305 305 306 307 307 307 306 306 305 304 304 304 303 302 303 302 300 299 299 298 298 298 297 297 297 296 294 293 292 289 288 287 287 287 288 289 290 290
305 304 304 303 302 302 302 301 301 301 301 301 300 300 300 299 298 297 297 296 295 294 293 291 290 289 288 287 287 286 286 286 287 288 288 289 291 292
301 301 300 300 300 299 299 299 299 298 298 298 297 297 297 296 295 293 292 290 289 288 287 287 287 286 286 286 286 286 287 288 288 289 289 289 289 290
294 295 294 294 294 293 292 289 288 288 288 287 287 287 288 288 288 288 287 287 286 286 286 286 285 285 285 286 287 288 288 288 288 288 289 289 289 289
288 287 287 287 287 286 286 286 285 285 285 285 285 285 285 285 285 285 285 285 285 285 284 284 285 287 287 288 288 288 288 288 288 288 288 288 288 289
287 286 286 286 285 285 285 285 284 284 285 285 285 285 284 284 284 283 284 283 282 283 284 285 287 288 288 288 289 289 289 289 288 289 288 288 288 289
286 286 285 285 284 284 284 284 283 283 283 283 283 283 283 282 282 283 282 283 284 285 286 286 287 287 288 289 289 288 288 288 288 288 287 287 288 289
285 285 284 284 283 283 283 283 283 283 283 282 282 282 282 282 282 283 284 284 285 285 285 285 285 286 286 287 288 288 288 288 288 288 287 288 288 288
285 284 284 283 283 283 282 282 282 282 282 282 282 282 282 284 284 284 285 285 285 286 286 285 285 285 284 286 287 288 288 288 288 288 288 288 287 287
284 284 283 283 282 282 282 282 282 282 282 282 282 284 284 284 285 285 285 286 286 286 286 286 285 284 282 284 286 287 287 289 288 289 288 288 287 287
284 283 283 283 282 282 282 281 281 282 282 283 284 284 284 284 285 285 286 286 286 286 285 285 284 284 283 283 283 287 287 286 288 287 288 288 288 287
283 283 283 282 282 281 281 281 281 281 282 283 283 284 284 285 285 285 285 285 285 286 286 285 284 284 284 284 284 286 287 287 287 287 287 287 287 288
284 283 283 282 281 281 281 281 281 281 281 281 283 284 284 284 285 285 284 284 284 285 285 285 285 284 284 286 285 286 286 286 286 286 286 285 287 288
283 282 282 282 281 281 281 281 281 280 281 281 281 282 283 284 284 284 284 284 284 284 285 285 285 284 283 283 285 285 284 285 285 285 285 285 285 287
283 282 282 282 281 281 281 281 281 281 280 280 280 281 281 281 282 282 282 282 282 283 284 285 285 284 283 283 282 285 285 284 285 285 285 285 285 286
283 283 282 282 281 281 281 281 281 281 281 280 280 280 280 280 280 281 281 281 281 282 283 284 284 283 283 282 282 285 285 285 285 284 284 284 285 285
284 283 283 282 282 281 281 281 281 281 281 280 280 280 280 280 281 281 282 283 284 283 284 284 284 283 283 283 283 284 285 286 285 285 285 284 284 282
284 284 283 283 282 282 282 282 282 282 282 282 282 282 283 284 284 284 284 284 284 284 284 284 284 283 283 283 283 284 284 284 285 285 286 285 285 285

GFSNE_850_thetae_066.txt.gz
Theta_e
319 318 317 317 317 317 313 312 315 315 314 313 314 313 313 313 312 312 311 310 308 307 308 309 306 306 306 306 305 304 304 304 304 304 302 302 302 302
315 316 316 314 311 310 310 311 312 313 311 312 312 311 311 311 312 311 310 309 306 305 305 304 305 306 305 303 302 303 302 301 301 301 301 301 301 301
310 310 309 309 310 310 310 310 311 311 311 311 310 309 308 308 308 308 307 307 304 302 305 303 301 301 302 301 300 300 299 299 300 300 300 299 298 298
308 308 308 308 309 308 309 308 308 308 308 308 308 308 308 307 307 305 304 305 302 302 301 301 300 300 300 299 298 298 298 298 298 298 298 298 297 296
305 306 306 306 307 308 308 307 307 307 307 306 306 306 305 304 304 304 303 303 302 300 300 299 299 298 298 297 297 297 296 296 297 297 297 294 291 292
304 304 303 304 306 306 305 304 304 304 304 303 302 302 301 301 301 300 300 299 299 299 299 299 298 298 297 297 297 296 296 295 293 290 288 287 288 289
302 303 303 303 302 302 302 301 301 301 301 300 300 299 299 298 297 297 297 297 296 296 295 295 294 293 291 291 290 289 288 287 287 286 287 288 288 290
300 300 299 299 298 297 297 297 296 296 295 294 294 294 292 292 291 291 290 289 289 289 289 288 287 287 286 286 286 286 285 286 286 287 288 289 291 291
289 289 289 288 288 288 287 287 287 287 287 287 287 286 286 286 286 286 286 286 286 285 285 286 285 285 285 285 285 286 287 287 288 288 288 289 289 289
288 288 287 287 287 287 286 286 286 286 286 285 285 285 285 285 285 285 285 285 284 284 283 283 284 285 286 287 288 288 288 288 288 288 288 289 289 288
287 287 287 286 286 286 286 285 285 284 284 284 284 284 284 284 284 283 283 283 283 283 284 285 286 287 288 288 288 288 288 289 289 289 288 288 288 288
287 286 286 285 285 284 285 284 284 284 283 283 283 283 283 282 282 283 283 283 284 286 286 286 286 287 288 288 288 288 288 288 288 288 288 288 288 288
287 286 285 284 284 284 283 283 283 283 283 282 282 282 282 282 282 283 284 285 285 285 285 285 286 286 286 287 288 287 287 288 288 288 288 288 288 288
286 286 285 285 284 284 283 283 283 282 282 282 282 282 282 283 284 284 285 285 285 286 286 285 285 286 285 286 287 288 288 287 287 288 288 287 288 288
286 285 284 284 284 283 283 282 282 282 282 282 282 283 284 284 284 285 285 285 286 286 286 286 285 285 285 285 286 288 287 289 288 288 288 288 288 288
286 285 285 284 283 283 283 282 282 282 282 282 283 284 284 284 285 285 285 286 286 286 285 284 284 284 285 285 285 287 287 286 288 287 287 288 288 288
286 285 285 284 283 282 282 282 281 281 281 281 281 282 283 284 285 285 285 285 285 286 286 285 284 283 284 285 285 286 287 287 287 287 286 286 288 288
286 285 284 283 283 282 282 282 281 281 280 281 281 281 282 283 284 284 284 284 284 285 285 285 284 283 284 285 285 285 286 286 286 285 285 285 285 287
285 285 284 284 283 282 282 282 281 281 281 281 281 281 280 281 281 281 281 282 282 282 283 283 283 283 283 283 285 285 285 285 285 285 285 285 285 286
285 285 285 284 283 283 282 282 281 281 281 281 281 280 280 280 280 280 280 280 281 281 283 284 284 283 282 282 282 285 284 284 284 285 285 285 285 286
286 286 285 285 284 283 282 282 282 282 281 281 281 280 280 280 280 280 281 281 281 282 283 284 284 283 282 281 282 285 285 285 285 285 285 284 285 286
286 286 285 285 284 284 283 283 283 282 282 282 282 281 281 281 282 283 283 283 283 283 284 284 284 284 283 283 284 284 285 285 285 284 284 284 284 284
286 286 285 285 285 285 285 285 285 284 284 284 284 284 284 284 284 284 283 283 283 283 283 284 284 284 283 283 283 284 284 284 284 284 285 285 285 284

GFSNE_850_thetae_069.txt.gz
Theta_e
319 320 318 317 316 316 315 315 311 311 312 313 312 311 311 311 312 311 312 311 310 310 308 309 311 312 311 310 308 307 305 306 305 305 305 306 305 304
315 314 313 314 314 314 311 309 310 310 311 311 311 310 309 308 307 309 310 309 308 307 306 307 308 307 306 307 308 307 305 305 303 303 304 304 303 303
311 311 311 310 309 309 309 309 309 309 310 310 309 308 307 307 307 308 307 306 306 304 304 305 305 305 306 306 305 304 303 302 302 301 301 301 302 301
308 308 308 308 308 308 308 308 308 308 307 307 307 306 306 306 306 306 306 305 304 303 303 305 305 303 302 303 303 303 302 301 300 299 299 299 300 300
305 305 305 305 306 307 307 307 307 306 306 306 306 305 304 304 304 304 304 304 303 302 302 302 301 301 300 300 300 299 299 298 298 298 298 298 298 298
304 304 304 304 305 306 305 304 304 304 303 303 303 302 302 301 300 300 300 301 301 301 301 300 300 300 299 298 298 298 298 297 297 297 297 296 292 289
303 302 303 303 303 302 302 301 301 301 300 300 300 299 299 298 297 296 296 296 297 297 298 298 298 297 296 296 296 296 295 294 293 291 289 287 287 287
297 295 292 291 290 289 289 289 289 289 288 289 289 288 288 288 288 288 288 288 288 288 288 289 288 288 288 288 288 287 287 287 286 286 286 286 287 289
289 289 289 289 288 288 288 287 287 287 287 287 286 286 286 286 286 286 286 286 286 286 286 286 286 285 286 286 286 286 285 285 286 286 287 288 290 290
289 288 288 288 288 288 287 287 286 286 286 285 285 285 285 285 285 285 284 284 284 284 284 284 284 285 286 287 287 287 287 288 288 288 288 288 289 289
288 288 287 287 287 287 286 286 285 285 285 284 284 284 284 284 284 284 283 283 283 283 285 285 286 287 287 288 288 288 288 288 288 288 288 289 289 289
288 288 287 286 286 285 285 285 285 285 284 284 283 283 283 283 283 283 283 283 284 285 285 285 286 286 287 287 287 287 288 288 288 288 288 288 288 288
288 287 286 286 285 285 285 284 284 284 283 283 283 283 283 283 283 283 284 285 285 285 285 285 286 286 286 286 288 287 287 287 287 288 288 288 288 288
288 287 286 285 285 284 284 283 283 283 283 283 283 283 283 283 285 285 285 285 285 286 286 286 286 285 285 285 287 288 288 287 287 287 287 287 288 288
287 286 286 285 284 284 283 283 283 283 283 283 283 283 284 284 285 285 285 286 286 286 286 286 285 285 285 285 286 287 288 288 288 288 287 287 287 287
287 286 286 285 284 284 283 283 283 283 283 282 282 282 283 283 285 285 285 286 286 286 285 284 284 284 285 285 286 287 287 286 287 287 287 288 288 288
287 287 286 285 284 284 284 283 283 283 282 282 282 282 282 282 283 284 285 285 285 286 285 284 283 284 285 285 285 286 286 286 286 287 286 287 287 288
287 287 286 285 285 284 284 283 283 282 282 282 281 281 281 281 281 281 282 282 283 284 284 283 282 282 283 285 285 285 285 286 286 286 285 286 287 287
287 286 286 286 285 285 284 283 282 282 282 282 282 281 281 281 280 281 281 281 281 282 282 282 282 282 282 283 285 284 285 285 285 285 285 285 286 287
286 286 286 286 286 285 284 284 283 282 282 282 281 281 281 281 281 281 280 280 281 282 283 284 284 283 283 283 283 285 285 284 284 285 285 285 285 286
285 285 286 286 286 285 285 284 284 283 282 282 282 281 281 281 282 282 282 283 283 284 284 285 284 283 283 282 282 285 285 285 285 284 284 284 284 285
285 285 285 286 286 285 285 285 285 284 284 284 284 284 283 283 284 284 284 284 284 283 284 284 284 283 283 283 283 284 284 284 284 284 284 283 283 283
285 285 285 285 285 285 286 286 286 286 285 285 285 285 285 285 284 284 284 284 283 283 283 283 283 283 283 283 283 283 284 284 284 284 285 285 284 284

GFSNE_850_thetae_072.txt.gz
Theta_e
317 318 320 319 318 317 315 315 314 314 313 312 312 312 311 310 310 310 310 311 311 311 310 309 310 309 312 314 311 314 312 311 309 308 307 306 306 305
312 315 316 316 316 314 313 313 311 310 310 311 311 310 310 309 308 308 309 309 309 308 308 308 307 308 310 311 310 309 309 309 308 306 307 305 305 304
310 312 312 312 312 311 310 309 309 309 309 310 309 309 308 307 306 307 307 306 306 307 306 306 305 305 306 307 307 307 307 307 306 305 305 305 303 303
308 308 309 309 309 308 308 308 308 308 307 307 307 306 306 305 304 305 305 305 305 305 305 304 305 304 304 305 305 305 304 305 305 305 304 303 302 301
306 306 306 305 306 306 307 306 307 307 306 306 306 305 304 304 303 303 303 303 303 304 304 303 303 304 303 303 302 303 304 303 302 302 301 300 299 299
304 304 305 305 305 305 306 305 305 304 304 303 303 302 301 301 300 300 299 300 300 301 301 301 302 302 301 301 301 301 300 300 300 300 299 298 298 298
303 303 303 304 303 303 303 302 301 300 300 299 298 297 296 294 293 292 291 291 292 294 296 297 298 298 298 299 299 299 298 298 297 297 297 296 295 293
301 298 293 291 290 290 290 289 289 289 288 288 288 288 288 287 287 287 287 287 289 288 287 288 288 288 288 289 289 290 290 290 290 290 289 288 287 287
290 289 289 289 289 289 289 288 288 288 287 287 287 287 286 286 286 286 286 286 286 286 285 286 286 285 286 286 286 286 286 286 286 286 286 286 286 287
290 290 289 289 289 288 287 287 287 286 286 286 286 286 286 285 285 285 285 284 285 285 284 285 285 286 287 287 287 287 287 287 286 286 287 288 289 290
289 289 289 289 289 288 287 286 286 286 286 285 285 285 284 284 284 284 284 284 285 285 285 286 287 287 288 288 288 288 288 288 288 288 288 288 289 289
290 289 289 288 287 287 286 286 286 285 285 285 284 284 284 284 283 283 283 283 284 286 286 286 286 286 287 288 288 288 288 288 288 288 288 289 288 289
289 289 288 287 287 287 287 286 286 285 285 284 284 284 283 283 283 283 284 285 285 285 285 286 286 286 285 286 288 287 287 287 287 287 288 288 288 288
289 288 288 287 286 286 286 286 285 285 284 284 284 283 283 283 284 285 285 286 286 286 285 286 286 285 285 286 286 287 287 287 287 288 288 287 287 287
288 288 287 287 286 286 285 285 284 284 284 283 283 283 283 284 284 285 286 286 286 286 286 286 286 286 285 286 286 286 286 287 287 288 287 287 287 288
288 288 288 287 286 286 285 284 284 284 283 283 283 282 282 283 283 284 285 286 286 286 285 285 285 285 286 286 286 286 286 286 287 286 286 287 287 287
287 287 288 287 286 286 285 285 284 284 283 283 282 282 282 282 282 282 282 283 283 284 284 283 284 284 285 285 285 286 286 286 286 286 285 286 287 287
287 287 287 287 286 286 285 285 284 284 283 283 282 282 282 281 281 281 281 281 282 282 282 281 281 282 283 284 285 285 285 286 285 285 286 285 287 287
286 286 286 286 286 286 285 285 284 284 283 283 282 282 282 282 281 281 281 281 282 282 282 281 282 283 283 283 284 285 286 285 285 285 285 284 285 286
286 286 286 285 286 286 285 285 285 284 284 283 283 283 282 282 282 282 282 282 282 283 283 284 284 284 283 283 281 284 284 285 284 284 285 284 285 286
286 285 285 285 285 286 286 285 285 285 284 284 284 283 283 283 283 283 283 284 284 285 285 284 284 283 283 283 283 284 285 285 285 284 284 284 284 285
286 285 285 285 285 285 285 285 285 285 285 285 285 285 284 284 284 284 284 284 284 284 284 284 284 284 283 283 283 283 284 284 284 284 284 284 284 283
286 285 285 284 284 285 285 285 285 285 285 285 285 285 285 285 284 285 285 284 284 284 284 284 283 283 283 283 283 283 284 284 284 284 285 285 284 285